Volver al catálogo

COSMOS 2545

GLONASS

ActivoNavegaciónMEO
NORAD 45358·PAYLOAD·🇷🇺 Russia

Lanzado Mar 16, 2020 desde Plesetsk Cosmodrome

Loading…

Próximos Pases (próximas 24 horas)

TLE

ActualizadoSource: CelesTrak SupGP

Época: Sep 13, 2026, 23:59 UTC

1 45358C 20018A   26256.99979167  .00000000  00000+0  00000+0 0  2568
2 45358  64.2965 309.2932 0011985 237.0244 188.4344  2.13102766    14

Sigue COSMOS 2545 en tiempo real con AllMySat

Download on the App Store